Location: Great Snoring
(52.8667°N, 0.8833°E)
Time: 06:21:37
(UTC+00:00)

ARIANE 6 FM1 Upper Stage - Visible Passes

Search period start: 20 January 2026 00:00
Search period end: 30 January 2026 00:00
Orbit: 522 x 610 km, 62.0° (Epoch: 19 January)

Date Brightness Start Highest point End Pass type
(mag) Time Alt. Az. Time Alt. Az. Time Alt. Az.
21 Jan 4.9 19:12:58 10° SSW 19:13:48 15° S 19:13:48 15° S visible
22 Jan 4.3 19:12:53 10° SSW 19:14:41 24° SSW 19:14:41 24° SSW visible
23 Jan 4.6 17:36:54 10° SE 17:38:36 12° ESE 17:39:24 12° ESE visible
23 Jan 3.7 19:12:55 10° SW 19:15:27 36° SSW 19:15:27 36° SSW visible
24 Jan 4.3 17:35:53 10° SSE 17:38:34 17° ESE 17:40:06 14° E visible
24 Jan 3.2 19:13:01 10° SW 19:16:08 52° SW 19:16:08 52° SW visible
25 Jan 3.9 17:35:18 10° S 17:38:33 23° ESE 17:40:41 15° E visible
25 Jan 3.0 19:13:13 10° WSW 19:16:44 60° W 19:16:44 60° W visible
26 Jan 3.5 17:34:57 10° S 17:38:33 31° SE 17:41:12 15° ENE visible
26 Jan 3.2 19:13:28 10° WSW 19:17:15 53° NW 19:17:15 53° NW visible
27 Jan 3.1 17:34:45 10° SSW 17:38:36 42° SE 17:41:39 15° ENE visible
27 Jan 3.4 19:13:47 10° WSW 19:17:39 43° NNW 19:17:41 43° NNW visible
28 Jan 2.7 17:34:40 10° SSW 17:38:39 58° SE 17:42:03 14° ENE visible
28 Jan 3.7 19:14:08 10° W 19:17:53 36° NNW 19:18:04 35° NNW visible
29 Jan 2.5 17:34:41 10° SW 17:38:44 78° SE 17:42:22 12° NE visible
29 Jan 3.9 19:14:30 10° W 19:18:07 31° NNW 19:18:23 30° NNW visible
